Regional Weather Roundup
Issued by NWS

Home | Current Version | Previous Version | Text Only | Print | Product List | Glossary Off
Versions: 1 2 3 4 5 6 7 8 9 10 11 12 13 14 15 16 17 18 19 20 21 22 23 24 25 26 27 28 29 30 31 32 33 34 35 36 37 38 39 40 41 42 43 44 45 46 47 48 49 50

000
ASUS43 KMKX 251021
RWRWI

WISCONSIN REGIONAL WEATHER ROUNDUP
NATIONAL WEATHER SERVICE MILWAUKEE/SULLIVAN WI
400 AM CST SUN JAN 25 2015

NOTE: "FAIR" INDICATES FEW OR NO CLOUDS BELOW 12,000 FEET WITH NO
SIGNIFICANT WEATHER AND/OR OBSTRUCTIONS TO VISIBILITY.

WIZ001-002-006>008-014>016-023>028-251100-
NORTHWEST WISCONSIN

CITY           SKY/WX    TMP DP  RH WIND       PRES   REMARKS
SUPERIOR ARPT  CLOUDY    22  14  72 E14       29.96R WCI   9
ASHLAND        CLOUDY    18   9  68 E5        29.95R WCI  11
HAYWARD        CLOUDY    15   7  70 NE9       29.88R WCI   3
SIREN          CLOUDY    20  13  75 E9        29.89R WCI  10
CUMBERLAND     CLOUDY    19  10  68 NE13      29.84R WCI   7
RICE LAKE      CLOUDY    19  11  74 N15       29.86R WCI   4
CHETEK         CLOUDY    21  15  76 NE7G16    29.84R WCI  13
LADYSMITH      CLOUDY    19  13  76 NE12      29.86R WCI   7
EAU CLAIRE     CLOUDY    27  20  75 NE10      29.80R WCI  17
MENOMONIE      CLOUDY    28  20  72 N12       29.81R WCI  18
NEW RICHMOND   CLOUDY    26  19  75 NE16      29.82R WCI  14
OSCEOLA        CLOUDY    25  17  73 NE12G21   29.87R WCI  14
$$

WIZ003>005-009-010-017-018-251100-
NORTH CENTRAL WISCONSIN

CITY           SKY/WX    TMP DP  RH WIND       PRES   REMARKS
MANITOWISH WTR MOCLDY     9   7  90 NE3       29.86R
ARBOR VITAE    MOCLDY    14  10  83 CALM      29.85R
WOODRUFF       MOCLDY    14  10  83 CALM      29.85R
RHINELANDER    CLOUDY    14   7  73 NE7       29.84R WCI   4
EAGLE RIVER    CLOUDY    14   7  73 E13       29.84R WCI   0
LAND O LAKES   FLURRIES  14  10  83 NE3       29.86R
PHILLIPS       CLOUDY    13   8  79 NE8       29.84R WCI   2
TOMAHAWK       CLOUDY    14   8  76 CALM      29.84S
MEDFORD        CLOUDY    19  13  78 NE15      29.80R WCI   4
MERRILL        CLOUDY    17  10  75 NE10      29.83R WCI   4
$$

WIZ029-030-035-036-043>047-251100-
CENTRAL WISCONSIN

CITY           SKY/WX    TMP DP  RH WIND       PRES   REMARKS
WAUSAU         CLOUDY    19  11  70 NE12      29.81R WCI   7
MOSINEE        CLOUDY    21  18  86 NE16      29.82R WCI   7
MARSHFIELD     CLOUDY    27  20  75 E16       29.78R WCI  15
STEVENS POINT  CLOUDY    19  11  71 E14G21    29.82R WCI   6
WAUPACA        CLOUDY    23  14  68 NE7G17    29.84S WCI  15
WAUTOMA        CLOUDY    22  16  78 NE15      29.82R WCI   9
WISC RAPIDS    CLOUDY    23  15  71 E9G22     29.81R WCI  13
CAMP DOUGLAS   MIX PCPN  25  25 100 NE12G17   29.78R WCI  15
$$

WIZ011>013-019>022-031-037>040-048>050-251100-
NORTHEAST WISCONSIN

CITY           SKY/WX    TMP DP  RH WIND       PRES   REMARKS
ANTIGO         CLOUDY    15   9  76 NE14      29.82S WCI   1
SHAWANO        CLOUDY    22  13  67 NE12      29.87R WCI  11
OCONTO         CLOUDY    20  14  75 MISG      29.89R
STURGEON BAY   CLOUDY    19  10  68 N13       29.89R WCI   7
GREEN BAY      CLOUDY    21  14  74 NE16G30   29.85S WCI   7
MANITOWOC      CLOUDY    23  17  78 N13G20    29.83R WCI  11
APPLETON       CLOUDY    21  14  73 NE14G23   29.84R WCI   8
CLINTONVILLE   CLOUDY    21  14  73 NE9       29.86R WCI  11
OSHKOSH        CLOUDY    22  14  71 NE20      29.81S WCI   7
$$

WIZ032>034-041-042-053>061-251100-
SOUTHWEST WISCONSIN

CITY           SKY/WX    TMP DP  RH WIND       PRES   REMARKS
LA CROSSE      CLOUDY    33  28  81 E13G22    29.73R WCI  24
SPARTA         CLOUDY    28  25  86 NE21      29.77R WCI  15
VIROQUA        CLOUDY    30  30 100 E22       29.68R WCI  17
BOSCOBEL       LGT SNOW  34  31  88 E10G17    29.69R FOG     WCI  26
PRAIRIE DU CHI CLOUDY    35  29  80 E12G17    29.66R WCI  26
PLATTEVILLE    CLOUDY    33  31  92 NE24G31   29.63S WCI  20
$$

WIZ056-057-062-063-064-067-068-251100-
SOUTH CENTRAL WISCONSIN

CITY           SKY/WX    TMP DP  RH WIND       PRES   REMARKS
REEDSBURG      DRIZZLE   26  22  85 NE17G23   29.75R WCI  12
BARABOO/DELLS  FLURRIES  25  20  83 NE18G24   29.75R WCI  11
LONE ROCK      LGT SNOW  30  27  88 NE14      29.73R FOG     WCI  19
MINERAL POINT  MIX PCPN  34  32  93 NE21G29   29.65F WCI  22
MADISON        CLOUDY    28  22  78 NE18G28   29.74R WCI  15
MIDDLETON      CLOUDY    30  27  88 NE15G24   29.73R WCI  19
WATERTOWN      CLOUDY    28  24  86 NE15G21   29.75R WCI  16
MONROE         CLOUDY    32  30  93 NE16G24   29.67R WCI  21
JANESVILLE     CLOUDY    32  30  93 NE17G23   29.70R WCI  21
$$

WIZ051-052-058>065-066-070>072-251100-
SOUTHEAST WISCONSIN

CITY           SKY/WX    TMP DP  RH WIND       PRES   REMARKS
MILWAUKEE      FLURRIES  30  24  78 NE22G31   29.76R WCI  17
WAUKESHA       CLOUDY    27  23  86 NE17G25   29.75S WCI  14
MILWAUKEE/TIMM CLOUDY    30  23  74 NE16G26   29.77R WCI  19
RACINE         CLOUDY    31  26  82 N18G28    29.75R WCI  19
BURLINGTON     CLOUDY    28  25  88 NE18G25   29.72S WCI  15
KENOSHA        CLOUDY    31  27  85 NE16      29.72R WCI  20
FOND DU LAC    CLOUDY    24  16  71 NE16G24   29.81R WCI  11
SHEBOYGAN      CLOUDY    25  18  74 N12G24    29.80R WCI  14
WEST BEND      CLOUDY    27  21  80 NE17G28   29.78R WCI  14
JUNEAU         CLOUDY    25  20  82 NE15G23   29.78R WCI  13
$$

LSZ147-162-251100-
LAKE SUPERIOR

STATION/POSITION TIME  TEMP    WIND        PRES    WAVE
                       AIR SEA DIR/SP/G            HT/PER
                 (UTC) (F)     (DEG/KT/KT) (MB)    (FT/S)
DEVILS ISLAND    1000   20      50/ 20/ 23 1016.2R
PORT WING        0900   22      50/ 15/ 20 1013.9R
SAXON HARBOR     0900   18        CALM     1013.5R
$$

LMZ867-665-643>646-251100-
LAKE MICHIGAN

STATION/POSITION TIME  TEMP    WIND        PRES    WAVE
                       AIR SEA DIR/SP/G            HT/PER
                 (UTC) (F)     (DEG/KT/KT) (MB)    (FT/S)
NORTHPORT PIER   1004   17      30/ 14/ 21 1013.5R
SISTER BAY       0928   19      10/ 14/ 22   N/A
KEWAUNEE LAKESHO 0900   22      10/ 10/ 16 1009.7R
SHEBOYGAN LAKESH 1000   28      30/ 25/ 28 1010.2R
PORT WASHINGTON  0925   30      30/ 16/ 26 1009.5R
MILWAUKEE LAKESH 1000   30      40/ 24/ 29   N/A
KENOSHA   LAKESH 1000   32      30/ 23/ 28 1006.8R
$$

TC  - TEMPERATURE IN CELSIUS
VSB - VISIBILITY IN STATUTE MILES
WCI - WIND CHILL INDEX
HX  - HEAT INDEX




USA.gov is the U.S. government's official web portal to all federal, state and local government web resources and services.